Skip Page Navigation
NASA JPL Caltech
NASA Logo - Jet Propulsion Laboratory + View the NASA Portal
+ Center for Near-Earth Object Studies
JPL Home Earth Solar System Stars & Galaxies Technology
JPL Solar System Dynamics
BODIES ORBITS EPHEMERIDES TOOLS PHYSICAL DATA DISCOVERY FAQ SITE MAP
JPL Small-Body Database Browser
Search: [ help ]  
277473 (2005 WD1)
Classification: Amor [NEO]          SPK-ID: 2277473
Ephemeris | Orbit Diagram | Orbital Elements | Mission Design | Physical Parameters | Discovery Circumstances | Close-Approach Data ]

[ show orbit diagram ]
Orbital Elements at Epoch 2459000.5 (2020-May-31.0) TDB
Reference: JPL 76 (heliocentric ecliptic J2000)
 Element Value Uncertainty (1-sigma)   Units 
e .4418323206050818 7.7107e-08  
a 2.199242804336509 2.5945e-08 au
q 1.227546252522481 1.726e-07 au
i 43.08049821449745 2.006e-05 deg
node 52.31035101584194 1.1601e-05 deg
peri 285.8881990226681 1.9308e-05 deg
M 215.7026673949844 2.708e-05 deg
tp 2459477.989689990307
(2021-Sep-20.48968999)
9.714e-05 TDB
period 1191.264490432691
3.26
2.1081e-05
5.772e-08
d
yr
n .3021998917043526 5.3478e-09 deg/d
Q 3.170939356150537 3.7409e-08 au
  Orbit Determination Parameters
   # obs. used (total)      218  
   data-arc span      6149 days (16.84 yr)  
   first obs. used      2004-04-17  
   last obs. used      2021-02-16  
   planetary ephem.      DE431  
   SB-pert. ephem.      SB431-N16  
   condition code      0  
   norm. resid. RMS      .55976  
   source      ORB  
   producer      Otto Matic  
   solution date      2021-Feb-17 05:22:48  

Additional Information
 Earth MOID = .496743 au 
 Jupiter MOID = 3.10941 au 
 T_jup = 3.218 
[ show covariance matrix ]

Ephemeris | Orbit Diagram | Orbital Elements | Mission Design | Physical Parameters | Discovery Circumstances | Close-Approach Data ]

Physical Parameter Table
Parameter Symbol Value Units Sigma Reference Notes
absolute magnitude H 16.75   n/a E2021B55  

277473 (2005 WD1)          Discovered 2005-Nov-21 by LINEAR at Socorro
Reference: 20110517/Numbers.arcLast Updated: 2011-05-20

[ show close-approach data ]
Ephemeris | Orbit Diagram | Orbital Elements | Mission Design | Physical Parameters | Discovery Circumstances | Close-Approach Data ]
ABOUT SSD CREDITS/AWARDS PRIVACY/COPYRIGHT GLOSSARY LINKS
FirstGov 2021-Feb-27 22:33 UT
(server date/time)  
NASA Home Page
Site Manager:   Ryan S. Park
Webmaster  Alan B. Chamberlin